Regional Weather Roundup
Issued by NWS

Home | Current Version | Previous Version | Text Only | Print | Product List | Glossary On
Versions: 1 2 3 4 5 6 7 8 9 10 11 12 13 14 15 16 17 18 19 20 21 22 23 24 25 26 27
000
ASUS44 KLIX 230513
RWRLA
LOUISIANA WEATHER ROUNDUP
NATIONAL WEATHER SERVICE NEW ORLEANS LA
1100 PM CST WED NOV 22 2017

NOTE: "FAIR" INDICATES FEW OR NO CLOUDS BELOW 12,000 FEET WITH NO
      SIGNIFICANT WEATHER AND/OR OBSTRUCTIONS TO VISIBILITY.
      SKY/WX - SKY CONDITION AND SIGNIFICANT WEATHER.
      TMP - AIR TEMPERATURE.    DP   - DEWPOINT TEMPERATURE.
      RH  - RELATIVE HUMIDITY.  PRES - PRESSURE.
      HX  - HEAT INDEX.         WCI  - WIND CHILL INDEX.

*  THESE STATIONS ARE NOT NWS OR FAA STATIONS AND ARE NOT UNDER
   NWS QUALITY CONTROL.

LAZ040-048-061>063-065-066-069-230600-
SOUTHEAST LOUISIANA

CITY           SKY/WX    TMP DP  RH WIND       PRES   REMARKS
N.O. INTL ARPT PTCLDY    54  42  64 N8        30.14S
N.O. LAKEFRONT CLEAR     55  41  59 N22       30.14S
N.O. DOWNTOWN* FAIR      55  38  52 N13       30.14S
RESERVE*       FAIR      50  38  61 N9        30.15F
SLIDELL        CLEAR     48  38  68 N7        30.13S
BATON ROUGE    CLEAR     45  32  60 N9        30.19S
BOOTHVILLE     PTCLDY    61  46  57 N12G22    30.09F
BELLE CHASSE   CLEAR     54  42  64 N8        30.12S
BOGALUSA*      NOT AVBL
GALLIANO*      CLEAR     52  44  74 N9        30.12S
NEW ROADS*     FAIR      42  32  68 N6        30.21S
GONZALES*      FAIR      48  35  61 N8        30.17R
HAMMOND*       CLEAR     45  36  70 N7        30.16S
HOUMA*         CLEAR     51  42  71 N9        30.14R
PORT FOURCHON* NOT AVBL

$$

LAZ041-044-053-054-230600-
SOUTHWEST LOUISIANA

CITY           SKY/WX    TMP DP  RH WIND       PRES   REMARKS
LAKE CHARLES   CLEAR     50  40  68 NE7       30.19F
LAFAYETTE      CLEAR     47  32  56 NE10      30.20S
PATTERSON      CLEAR     49  38  65 N8        30.16F
SALT POINT       N/A      1  32 100 N7        30.15S WCI -12
NEW IBERIA     PTCLDY    47  32  56 N12       30.19S
CHENAULT AIRPK CLEAR     46  40  78 N6        30.20F

$$

LAZ027-028-230600-
CENTRAL LOUISIANA

CITY           SKY/WX    TMP DP  RH WIND       PRES   REMARKS
FORT POLK      NOT AVBL
ALEXANDRIA INT CLEAR     42  32  67 NE3       30.22R
ALEXANDRIA     CLEAR     38  32  79 CALM      30.23S

$$

LAZ001-002-230600-
NORTHWEST LOUISIANA

CITY           SKY/WX    TMP DP  RH WIND       PRES   REMARKS
SHREVEPORT     CLEAR     39  32  76 CALM      30.24F
BARKSDALE AFB  CLEAR     38  33  81 CALM      30.24F
DTN SHREVEPORT CLEAR     39  34  82 CALM      30.25F

$$

LAZ014-016-230600-
NORTHEAST LOUISIANA

CITY           SKY/WX    TMP DP  RH WIND       PRES   REMARKS
MONROE         CLEAR     35  27  72 NE7       30.25F WCI  29
TALLULAH       CLEAR     38  30  73 N7        30.24S WCI  33

$$





USA.gov is the U.S. government's official web portal to all federal, state and local government web resources and services.